Simultaneous Nadir Overpasses (SNOs) Predictions

Prediction of SNOs between NOAA-15 and METOP-C Satellite Orbit:

Table of predicted SNOs for the next 14.0 days since TLE Epoch: 1/18/2020
Index Date (NOAA-15) Time (NOAA-15) Lat,Lon (NOAA-15) SZA (NOAA-15 ) Date (METOP-C) Time (METOP-C) Lat,Lon (METOP-C) SZA (METOP-C ) Distance(km) Time Diff (sec)
1 01/31/2020 02:45:34 -80.86, -6.12 80.30 01/31/2020 02:44:22 -80.83, -7.47 80.46 24.10 72
2 01/31/2020 03:36:04 80.88, 160.83 99.68 01/31/2020 03:34:58 80.88, 160.87 99.66 0.69 66
3 01/31/2020 04:26:38 -80.88, -31.89 80.34 01/31/2020 04:25:40 -80.88, -31.83 80.36 1.32 58
4 01/31/2020 05:17:07 80.89, 135.43 99.65 01/31/2020 05:16:19 80.87, 135.44 99.62 1.61 48
5 01/31/2020 06:07:40 -80.87, -56.94 80.35 01/31/2020 06:07:00 -80.89, -56.90 80.35 1.88 40
6 01/31/2020 06:58:09 80.88, 110.38 99.64 01/31/2020 06:57:39 80.89, 110.37 99.64 1.10 30
7 01/31/2020 07:48:43 -80.88, -82.35 80.38 01/31/2020 07:48:21 -80.89, -82.33 80.38 0.50 22
8 01/31/2020 08:39:12 80.88, 84.97 99.61 01/31/2020 08:39:00 80.88, 84.94 99.61 0.72 12
9 01/31/2020 09:29:46 -80.89,-107.76 80.40 01/31/2020 09:29:42 -80.88,-107.76 80.41 0.93 4
10 01/31/2020 10:20:15 80.89, 59.57 99.59 01/31/2020 10:20:21 80.88, 59.51 99.57 1.94 6
11 01/31/2020 11:10:48 -80.88,-132.81 80.42 01/31/2020 11:11:02 -80.89,-132.83 80.40 1.76 14
12 01/31/2020 12:01:17 80.88, 34.52 99.58 01/31/2020 12:01:41 80.89, 34.43 99.59 1.86 24
13 01/31/2020 12:51:51 -80.89,-158.22 80.44 01/31/2020 12:52:23 -80.89,-158.26 80.43 0.86 32
14 01/31/2020 13:42:20 80.89, 9.11 99.55 01/31/2020 13:43:02 80.89, 9.00 99.56 1.98 42
15 01/31/2020 14:32:54 -80.89, 176.37 80.47 01/31/2020 14:33:44 -80.88, 176.31 80.46 1.49 50
16 01/31/2020 15:23:23 80.90, -16.29 99.53 01/31/2020 15:24:23 80.88, -16.43 99.52 2.88 60
17 01/31/2020 16:13:56 -80.88, 151.32 80.48 01/31/2020 16:15:04 -80.90, 151.24 80.45 2.22 68




NCC Satellite Simultaneous Nadir Overpasses (SNOs) Prediction Service
